TimeEST,TemperatureF,Dew PointF,Humidity,Sea Level PressureIn,VisibilityMPH,Wind Direction,Wind SpeedMPH,Gust SpeedMPH,PrecipitationIn,Events,Conditions,WindDirDegrees,DateUTC
12:53 AM,66.9,66.9,100,30.07,10.0,NNW,11.5,-,N/A,,Overcast,340,2012-11-16 05:53:00
1:53 AM,66.0,66.0,100,30.06,10.0,NNW,9.2,-,N/A,,Overcast,330,2012-11-16 06:53:00
2:53 AM,64.9,64.9,100,30.07,10.0,NNW,10.4,-,N/A,,Overcast,330,2012-11-16 07:53:00
3:53 AM,64.9,64.9,100,30.07,10.0,NNW,9.2,-,N/A,,Mostly Cloudy,340,2012-11-16 08:53:00
4:53 AM,64.0,64.0,100,30.06,10.0,NW,9.2,-,N/A,,Mostly Cloudy,310,2012-11-16 09:53:00
5:02 AM,64.4,64.4,100,30.06,10.0,NNW,8.1,-,N/A,,Mostly Cloudy,330,2012-11-16 10:02:00
5:17 AM,64.4,64.4,100,30.07,10.0,NW,9.2,-,N/A,,Overcast,320,2012-11-16 10:17:00
5:53 AM,64.0,64.0,100,30.08,10.0,NNW,9.2,-,N/A,,Overcast,340,2012-11-16 10:53:00
6:33 AM,64.4,64.4,100,30.08,8.0,NNW,9.2,-,N/A,,Overcast,330,2012-11-16 11:33:00
6:53 AM,64.0,64.0,100,30.09,8.0,NNW,6.9,-,N/A,,Overcast,330,2012-11-16 11:53:00
7:53 AM,64.9,64.9,100,30.10,9.0,NNW,8.1,-,N/A,,Overcast,340,2012-11-16 12:53:00
8:41 AM,66.2,66.2,100,30.11,10.0,NNW,8.1,-,N/A,,Mostly Cloudy,340,2012-11-16 13:41:00
8:53 AM,68.0,66.0,93,30.11,10.0,NNW,5.8,-,N/A,,Mostly Cloudy,340,2012-11-16 13:53:00
9:53 AM,68.0,66.0,93,30.12,10.0,NNW,8.1,-,N/A,,Mostly Cloudy,330,2012-11-16 14:53:00
10:00 AM,69.8,66.2,88,30.12,10.0,NW,8.1,-,N/A,,Overcast,320,2012-11-16 15:00:00
10:32 AM,69.8,66.2,88,30.11,10.0,NW,9.2,-,N/A,,Overcast,310,2012-11-16 15:32:00
10:53 AM,69.1,66.9,93,30.11,10.0,NW,6.9,-,N/A,,Mostly Cloudy,310,2012-11-16 15:53:00
11:53 AM,71.1,66.9,87,30.09,10.0,NNW,12.7,-,N/A,,Mostly Cloudy,330,2012-11-16 16:53:00
12:53 PM,75.0,66.9,76,30.05,10.0,NNW,8.1,-,N/A,,Mostly Cloudy,340,2012-11-16 17:53:00
1:53 PM,75.9,64.9,69,30.05,10.0,NNE,8.1,-,N/A,,Mostly Cloudy,30,2012-11-16 18:53:00
2:53 PM,75.9,66.9,74,30.04,10.0,NNE,11.5,-,N/A,,Mostly Cloudy,30,2012-11-16 19:53:00
3:53 PM,75.0,66.0,73,30.03,10.0,NE,9.2,-,N/A,,Partly Cloudy,40,2012-11-16 20:53:00
4:53 PM,73.9,68.0,82,30.04,10.0,NE,13.8,-,N/A,,Partly Cloudy,40,2012-11-16 21:53:00
5:53 PM,73.0,66.9,81,30.05,10.0,NNE,5.8,-,N/A,,Mostly Cloudy,20,2012-11-16 22:53:00
6:53 PM,72.0,66.0,81,30.06,10.0,NE,5.8,-,N/A,,Partly Cloudy,50,2012-11-16 23:53:00
7:53 PM,72.0,66.0,81,30.07,10.0,NE,4.6,-,N/A,,Mostly Cloudy,40,2012-11-17 00:53:00
8:53 PM,72.0,66.9,84,30.08,10.0,ESE,15.0,19.6,0.00,Rain,Light Rain,110,2012-11-17 01:53:00
9:53 PM,68.0,68.0,100,30.09,10.0,NNW,5.8,-,0.25,Rain,Light Rain,340,2012-11-17 02:53:00
10:53 PM,69.1,69.1,100,30.08,10.0,NNE,3.5,-,0.03,Rain,Light Rain,20,2012-11-17 03:53:00
11:01 PM,68.0,68.0,100,30.08,10.0,Calm,Calm,-,0.00,,Overcast,0,2012-11-17 04:01:00
11:53 PM,68.0,68.0,100,30.05,10.0,NNW,4.6,-,0.00,,Mostly Cloudy,330,2012-11-17 04:53:00